Location: ??????????
(42.1626°N, 44.1160°E)
Time: 21:12:28
(UTC+00:00)

Daily predictions for brighter satellites

Satellite Brightness Start Highest point End
(mag) Time Altitude Azimuth Time Altitude Azimuth Time Altitude Azimuth
Cosmos 2360 Rocket 3.1 15:14:01 10° SSE 15:18:44 28° ESE 15:23:29 10° NE
ERS-2 3.1 15:17:20 10° NE 15:20:30 27° E 15:23:37 10° SSE
BREEZE-M DEB (TANK) 3.8 15:18:45 10° SW 15:21:58 59° SE 15:32:32 10° ENE
MOS 1 Rocket 3.9 15:17:16 10° N 15:22:21 74° WNW 15:27:39 10° SSW
H-2A R/B 3.6 15:20:38 10° N 15:24:25 37° WNW 15:28:13 10° SW
Cosmos 1271 Rocket 2.6 15:21:07 10° N 15:24:52 78° E 15:28:37 10° SSE
SKYMED 2 3.9 15:21:00 10° N 15:25:21 75° WNW 15:29:41 10° SSW
Cosmos 1470 Rocket 4.2 15:21:58 10° SSE 15:26:01 34° E 15:30:03 10° NNE
PSLV R/B 4.2 15:24:07 10° NNE 15:28:04 45° E 15:31:57 10° S
HJ-1C 4.4 15:25:50 10° SE 15:28:38 26° ENE 15:31:28 10° NNE
Cosmos 2333 Rocket 3.7 15:25:54 10° SE 15:28:42 14° E 15:31:31 10° ENE
COSMOS 2455 4.4 15:27:39 10° NW 15:33:12 39° WSW 15:38:42 10° S
Cosmos 1602 3.7 15:29:45 10° S 15:33:35 64° E 15:37:28 10° NNE
Okean O Rocket 3.9 15:30:55 10° SSW 15:34:43 30° W 15:38:33 10° NW
Cosmos 1980 Rocket 4.2 15:29:50 10° WSW 15:34:44 29° NW 15:39:41 10° N
CZ-4B R/B 2.4 15:35:36 10° N 15:38:32 46° WNW 15:41:29 10° SSW
SL-08 RB Rocket 4.4 15:35:53 10° SE 15:39:54 33° ENE 15:43:59 10° N
Cosmos 1500 3.8 15:37:58 10° SSE 15:41:20 33° E 15:44:43 10° NNE
SJ-11-01 4.2 15:39:17 10° SSE 15:43:55 69° ENE 15:48:36 10° N
CZ-2C R/B 4.1 15:40:16 10° S 15:45:54 55° W 15:51:22 10° NNW
Cosmos 1933 Rocket 4.0 15:42:55 10° SSE 15:46:55 37° E 15:50:58 10° NNE
Cosmos 2322 Rocket 2.2 15:42:45 10° SSW 15:48:21 88° ESE 15:54:00 10° NNE
Cosmos 1666 Rocket 4.2 15:44:08 10° SSW 15:48:25 60° W 15:52:42 10° N
Nadezhda 3 Rocket 4.0 15:46:15 10° N 15:52:38 70° E 15:58:57 10° SSE
Cosmos 1862 Rocket 3.5 15:48:21 10° N 15:52:52 82° E 15:57:20 10° S
Cosmos 1689 Rocket 1.8 15:51:36 10° NNE 15:54:29 82° ESE 15:57:21 10° S
Cosmos 2154 Rocket 3.9 15:50:09 10° S 15:56:21 83° E 16:02:35 10° N
Cosmos 1295 Rocket 4.4 15:51:31 10° S 15:57:43 71° E 16:03:54 10° NNE
Cosmos 2242 Rocket 4.1 15:53:56 10° N 15:58:06 36° ENE 16:02:13 10° SE
COSMOS 2428 3.9 15:54:48 10° SE 15:58:34 18° E 16:00:08 17° E
Cosmos 1610 Rocket 4.5 15:53:57 10° S 16:00:08 87° E 16:06:27 10° N
Lacrosse 4 Rocket 2.9 15:58:54 10° SSE 16:01:34 18° ESE 16:01:34 18° ESE
Meteor 1-14 Rocket 4.1 15:56:35 10° S 16:02:07 69° E 16:07:38 10° NNE
Aureole 2 Rocket 1.6 16:00:50 10° N 16:03:19 54° ENE 16:04:23 27° SE
YAOGAN 1 3.0 16:00:34 10° S 16:04:51 66° WSW 16:09:10 10° NNW
Helios 1A Rocket 2.8 16:01:55 10° SSE 16:05:57 75° ENE 16:10:00 10° N
Cosmos 2219 Rocket 3.1 16:01:32 10° SSE 16:06:00 25° ESE 16:10:30 10° NE
ASTEX 1 4.4 16:05:54 10° NNE 16:09:51 24° E 16:11:00 22° ESE
SJ-6B 3.8 16:11:18 26° E 16:12:06 28° ENE 16:15:34 10° N
USA 234 3.3 16:05:39 10° NE 16:12:07 61° SE 16:18:34 10° SSW
GP-B 3.1 16:07:48 10° SSE 16:12:09 60° E 16:16:32 10° N
SL-16 R/B 3.2 16:07:31 10° SW 16:12:59 48° WNW 16:18:29 10° NNE
ARGOS 3.3 16:08:07 10° SSE 16:13:33 82° WSW 16:19:00 10° NNW
Cosmos 1992 Rocket 4.3 16:08:40 10° SSW 16:13:52 69° WNW 16:19:06 10° NNE
Meteor 1-18 Rocket 4.5 16:09:09 10° NNW 16:15:06 78° W 16:20:58 10° S
Abrixas rocket 3.6 16:13:20 10° NW 16:15:14 19° N 16:15:47 18° NNE
Cosmos 2263 Rocket 4.2 16:10:31 10° NW 16:15:15 29° WSW 16:19:59 10° SSW
Cosmos 968 Rocket 4.4 16:12:50 10° NNW 16:17:56 50° WSW 16:23:00 10° S
SeaSat 1 2.6 16:18:23 10° NNE 16:23:20 78° WNW 16:28:16 10° SSW
Cosmos 2322 3.9 16:19:54 10° S 16:25:21 48° ESE 16:30:50 10° NE
H-2A R/B 3.4 16:20:44 10° S 16:25:53 44° W 16:31:06 10° NNW
SJ 16-02 3.5 16:24:47 10° NNE 16:25:34 12° NE 16:25:34 12° NE
CZ-2C R/B 2.7 16:21:59 10° N 16:27:29 81° WNW 16:32:49 10° SSW
OBJECT-B 2.9 16:30:18 16° NNE 16:30:18 16° NNE 16:31:13 10° N
SL-8 Rocket 4.0 16:22:22 10° S 16:28:28 59° E 16:34:33 10° NNE
Okean 1-7 2.9 16:24:16 10° N 16:28:37 63° E 16:31:49 17° SSE
Cosmos 962 Rocket 4.5 16:24:17 10° S 16:30:29 90° E 16:36:49 10° N
CZ-4 R/B 3.7 16:27:23 10° SSW 16:30:36 25° W 16:33:51 10° NW
DMSP B5D2-2 3.9 16:29:17 10° NNE 16:34:31 77° ESE 16:39:43 10° S
Cosmos 1869 Rocket 3.4 16:36:52 10° S 16:41:07 61° E 16:45:27 10° NNE
SL-4 R/B 3.1 16:40:23 10° NW 16:43:03 25° N 16:43:03 25° N
Cosmos 2366 rocket 3.9 16:37:12 10° S 16:43:23 63° E 16:49:40 10° NNE
Cosmos 1339 Rocket 4.4 16:37:26 10° N 16:43:39 75° E 16:49:56 10° SSE
CSL-04 Rocket 4.4 16:40:32 10° S 16:45:57 54° W 16:51:22 10° NNW
Cosmos 1354 Rocket 4.3 16:42:52 10° NNW 16:48:04 65° WSW 16:52:57 11° S
ATLAS CENTAUR R/B 2.6 16:44:54 10° WSW 16:48:14 35° NW 16:50:43 16° N
Cosmos 1844 Rocket 2.8 16:45:06 10° NNW 16:50:41 75° WSW 16:54:24 21° SSE
Cosmos 2341 Rocket 4.2 16:45:22 10° SSW 16:51:39 72° W 16:57:57 10° N
FALCON 9 DEB 3.9 16:50:23 10° NW 16:53:01 48° NNW 16:53:01 48° NNW
Cosmos 2333 4.1 16:50:18 10° SSW 16:55:56 86° WNW 17:01:41 10° NNE
Cosmos 1777 Rocket 3.9 16:51:45 10° NNW 16:56:59 68° ENE 16:57:41 60° ESE
Cosmos 1666 3.4 16:54:20 10° SSW 16:57:58 52° W 17:01:38 10° N
Cosmos 1844 3.8 16:56:31 10° NNW 17:02:17 74° WSW 17:05:00 32° S
Cosmos 2360 Rocket 3.3 16:57:09 10° SW 17:02:29 43° WNW 17:07:53 10° NNE
Ariane Rocket 2.8 17:01:52 61° SE 17:02:43 77° ENE 17:07:49 10° N
Okean 3 4.0 17:03:13 10° N 17:06:22 49° N 17:06:22 49° N
Cosmos 1727 Rocket 3.9 17:01:26 10° N 17:07:34 62° E 17:08:08 59° ESE
Cosmos 2278 Rocket 3.4 17:02:57 10° N 17:06:44 28° NNE 17:06:44 28° NNE
Meteor 2-20 4.5 17:04:07 10° N 17:09:56 56° ENE 17:09:56 56° ENE
Cosmos 2218 Rocket 4.1 17:03:55 10° S 17:10:20 79° W 17:16:46 10° N
DELTA 2 R/B (1) 4.3 17:05:25 10° SW 17:09:40 37° S 17:09:40 37° S
Cosmos 2333 Rocket 2.2 17:06:29 10° SSW 17:12:10 81° WNW 17:17:55 10° NNE
SME Rocket 4.3 17:13:05 10° NNE 17:20:59 69° WNW 17:26:07 10° SSW
Resurs 01 Rocket 3.7 17:35:08 19° N 17:35:08 19° N 17:36:25 10° N
Lacrosse 4 Rocket 3.4 17:35:59 10° SW 17:38:01 25° WSW 17:38:01 25° WSW
COSMOS 2428 3.0 17:36:38 10° SW 17:42:15 64° WNW 17:42:29 63° NW
Cosmos 2219 Rocket 3.1 17:44:17 10° SW 17:49:38 46° WNW 17:53:41 17° N
BREEZE-M DEB (TANK) 4.2 17:38:07 10° WNW 17:50:35 74° NNW 17:50:35 74° NNW
USA 234 4.0 17:52:32 33° NNE 17:55:00 47° NNW 18:01:11 10° W
SJ 16-02 4.0 18:01:40 10° NNW 18:02:33 16° NNW 18:02:33 16° NNW
Cosmos 2278 Rocket 4.5 18:46:48 10° NW 18:48:36 20° NW 18:48:36 20° NW
